Location: Newark
(48.5667°N, 12.8167°E)
Time: 03:42:07
(UTC+00:00)

METEOR M2 - Pass Details

Date: 17 November 2019
Orbit: 818 x 828 km, 98.5° (Epoch: 06 December)

Event Time Altitude Azimuth Distance (km) Brightness Sun altitude
Exits shadow 18:56:04 20° 345° (NNW) 1,842 ? -34.3°
Drops below altitude 10° 18:57:37 10° 346° (NNW) 2,437 ? -34.5°
Sets 18:59:58 0° 346° (NNW) 3,373 ? -34.9°
